Regional Weather Roundup
Issued by NWS Green Bay, WI

Home | Current Version | Previous Version | Text Only | Print | Product List | Glossary On
Versions: 1 2 3 4 5 6 7 8 9 10 11 12 13 14 15 16 17 18 19 20 21 22 23 24 25 26 27 28 29 30 31 32 33 34 35 36 37 38 39 40 41 42 43 44 45 46 47 48 49 50
000
ASUS43 KGRB 280259
RWRGRB

NORTH-CENTRAL AND NORTHEAST WISCONSIN REGIONAL WEATHER ROUNDUP
NATIONAL WEATHER SERVICE GREEN BAY WI
900 PM CST THU NOV 27 2014

WIZ005-009-010>012-018-019-280400-
NORTH CENTRAL WISCONSIN

CITY           SKY/WX    TMP DP  RH WIND       PRES   REMARKS
IRONWOOD       PTCLDY    -8 -15  71 CALM      30.26F
MANITOWISH WTR NOT AVBL
ARBOR VITAE    NOT AVBL
EAGLE RIVER    NOT AVBL
LAND O LAKES   NOT AVBL
RHINELANDER    MOCLDY    -7 -10  87 CALM      30.26F
PHILLIPS       NOT AVBL
ANTIGO         NOT AVBL
TOMAHAWK       NOT AVBL
MERRILL        NOT AVBL
$$

WIZ013-073-280400-
NORTHEAST WISCONSIN

CITY           SKY/WX    TMP DP  RH WIND       PRES   REMARKS
IRON MOUNTAIN  PTCLDY    -4  -8  83 CALM      30.29F
MARINETTE      PTCLDY     1  -2  85 CALM      30.35F
$$

WIZ017-030-035>037-045-280400-
CENTRAL WISCONSIN

CITY           SKY/WX    TMP DP  RH WIND       PRES   REMARKS
MEDFORD        NOT AVBL
WAUSAU         PTCLDY     2  -3  80 CALM      30.30F
MOSINEE        CLEAR      0  -2  92 CALM      30.31F
MARSHFIELD     PTCLDY    -1  -5  82 CALM      30.31F
WISC RAPIDS    MOCLDY    -1  -6  79 CALM      30.36F
STEVENS POINT  NOT AVBL
WAUPACA        NOT AVBL
SHAWANO        NOT AVBL
CLINTONVILLE   NOT AVBL
$$

WIZ038-039-048-051-280400-
FOX VALLEY

CITY           SKY/WX    TMP DP  RH WIND       PRES   REMARKS
NWS GREEN BAY  PTCLDY     5   0  79 W6        30.37F WCI  -6
APPLETON       CLEAR      3   0  85 W9        30.36F WCI -11
OSHKOSH        PTCLDY     6  -1  73 MISG      30.36F
FOND DU LAC    MOCLDY     4  -1  80 CALM      30.37F
$$

WIZ022-050-052-280400-
EAST CENTRAL WISCONSIN

CITY           SKY/WX    TMP DP  RH WIND       PRES   REMARKS
STURGEON BAY   PTCLDY    12   1  62 NW5       30.34F WCI   4
MANITOWOC      NOT AVBL
SHEBOYGAN      PTCLDY     8   3  80 W7        30.37F WCI  -3
$$

LMZ563-521-522-541>543-280400-
LAKESHORE

STATION/POSITION TIME  TEMP    WIND        PRES    VSBY  WAVE
                       AIR SEA DIR/SP/G                  HT/PER
                 (UTC) (F)     (DEG/KT/KT) (MB)    (MI)  (FT/S)
SHEBOYGAN LKSHOR 0200   14 34  280/  8/  9 1030.3F
KEWAUNEE LKSHORE 0200    9     310/  3/  5 1027.5S
NORTHPORT PIER   0200   17     310/ 12/ 16 1027.8S
N MID LAKE BUOY  0200   19 42  310/ 14/ 19 1028.2R         3/ 4
CHAMBERS ISLAND  0200   17     320/  8/ 13 1028.1S
MENOMINEE LKSHOR 0200   12     290/  5/  8 1029.0R
$$



USA.gov is the U.S. government's official web portal to all federal, state and local government web resources and services.